Volver al catálogo

STARLINK-3583

ActivoComunicacionesVLEO
NORAD 51876·PAYLOAD·🇺🇸 United States

Lanzado Mar 3, 2022 desde Cape Canaveral Space Force Station

Loading…

Próximos Pases (próximas 24 horas)

TLE

ActualizadoSource: CelesTrak SupGP

Época: Sep 15, 2026, 01:49 UTC

1 51876C 22022AA  26258.07618056 -.00024708  00000+0 -70691-3 0  2587
2 51876  53.1575 229.6139 0001375  91.4017 171.7297 15.35411085    13

Sigue STARLINK-3583 en tiempo real con AllMySat

Download on the App Store